Hourly Data Report for May 12, 2012

All times are specified in Local Standard Time (LST). Add 1 hour to adjust for Daylight Saving Time where and when it is observed.

DEER LAKE A
NEWFOUNDLAND

49°12'33.000" N
57°23'40.000" W
21.90 m
8401502
71809
YDF

Download Data

Hourly Data (May 2012)
Hourly Data Report for May 12, 2012
Temp Definition
°C
Dew Point Temp Definition
°C
Rel Hum Definition
%
Wind Dir Definition
10's deg

Wind Spd Definition
km/h
Visibility Definition
km
Stn Press Definition
kPa
Hmdx Definition


Wind Chill Definition


Weather Definition


TIME
00:30 11.8 9.7 87   0 10.0 101.35     Rain
01:30 11.2 10.0 92   0 10.0 101.35     Rain
02:30 10.8 10.0 95 9 8 10.0 101.33     Rain
03:30 10.3 9.9 97 13 5 10.0 101.39     Rain
04:30 10.2 9.8 97   0 10.0 101.40     Rain
05:30 10.1 9.7 97 35 5 10.0 101.43     Rain
06:30 10.3 10.0 98 7 8 10.0 101.44     Rain
07:30 10.8 10.4 97 3 14 10.0 101.41     Rain
08:30 11.6 11.0 96 5 10 10.0 101.45     Rain
09:30 12.2 11.4 95 3 13 10.0 101.40     Rain
10:30 13.0 12.2 95 36 8 10.0 101.44     Rain
11:30 13.0 11.9 93 3 6 10.0 101.39     Cloudy
12:30 12.8 11.4 91 13 13 10.0 101.41     Rain
13:30 13.3 11.5 89 17 10 10.0 101.42     LegendNANA
14:30 14.2 10.8 80 18 8 10.0 101.47     Mostly Cloudy
15:30 15.0 7.9 62 20 16 10.0 101.48     LegendNANA
16:30 16.7 7.2 53 20 13 10.0 101.45     LegendNANA
17:30 16.4 8.2 58 15 12 10.0 101.48     Mostly Cloudy
18:30 15.9 6.1 52 17 18 10.0 101.49     LegendNANA
19:30 11.6 7.2 74 24 11 10.0 101.61     LegendNANA
20:30 9.8 6.5 80 23 8 10.0 101.72     Mainly Clear
21:30 8.7 5.8 82 23 12 10.0 101.76     LegendNANA
22:30 7.2 5.2 87 22 8 10.0 101.78     LegendNANA
23:30 5.4 4.4 93 20 7 10.0 101.78     Mostly Cloudy

Notes on Data Quality.

Legend

  • E = Estimated
  • M = Missing
  • NA = Not Available
Date modified: